Location: Tamazert
(32.6352°N, 5.2072°W)
Time: 05:01:59
(UTC+00:00)

Vanguard 1 Rocket - Pass Details

Date: 08 October 2022
Orbit: 650 x 4225 km, 34.3° (Epoch: 05 December)

Event Time Altitude Azimuth Distance (km) Brightness Sun altitude
Rises 02:12:00 0° 280° (W) 4,968 - -50.7°
Reaches altitude 10° 02:17:42 10° 258° (WSW) 3,244 - -49.7°
Maximum altitude 02:21:13 14° 230° (SW) 2,551 - -49.1°
Drops below altitude 10° 02:24:05 10° 200° (SSW) 2,514 - -48.6°
Sets 02:27:29 0° 172° (S) 3,150 - -48.0°
